Weather History for Cullman, AL

Change the Weather History Date:

Saturday, March 2, 2013

  Actual Average (KHSV) Record (KHSV)
Temperature  
Mean Temperature 32 °F 50 °F  
Max Temperature 34 °F 61 °F 83 °F (1932)
Min Temperature 29 °F 39 °F 10 °F (1980)
Degree Days  
Heating Degree Days 34 15  
Month to date heating degree days 31  
Since 1 July heating degree days 2483  
Cooling Degree Days 0 0  
Month to date cooling degree days 0  
Year to date cooling degree days 1  
Moisture  
Dew Point 28 °F    
Average Humidity 86    
Maximum Humidity 95    
Minimum Humidity 71    
Precipitation  
Precipitation 0.02 in 0.16 in 3.49 in (1960)
Month to date precipitation 0.34  
Year to date precipitation 10.07  
Snow  
Snow 0.00 in - - ()
Month to date snowfall  
Since 1 July snowfall  
Snow Depth -    
Sea Level Pressure  
Sea Level Pressure 30.09 in    
Wind  
Wind Speed 6 mph (NW)    
Max Wind Speed 12 mph    
Max Gust Speed 18 mph    
Visibility 7 miles    
Events Rain , Snow    
T = Trace of Precipitation, MM = Missing Value Source: NWS Daily Summary

Daily Weather History Graph

Daily Weather History Graph

Search for Another Location

Airport:

Trip Planner

Search our weather history database for the weather conditions in past years. The results will help you decide how hot, cold, wet, or windy it might be!

Date:

Astronomy

Mar. 02, 2013 Rise Set
Actual Time 6:14 AM CST 5:44 PM CST
Civil Twilight 5:49 AM CST 6:09 PM CST
Nautical Twilight 5:20 AM CST 6:38 PM CST
Astronomical Twilight 4:51 AM CST 7:08 PM CST
Moon 11:06 PM CST (3/2) 8:57 AM CST (3/2)
Length of Visible Light 12h 20m
Length of Day
11h 30m
Waning Gibbous, 74% of the Moon is Illuminated
Mar 2
Waning Gibbous
Mar 4
Last Quarter
Mar 11
New
Mar 19
First Quarter
Mar 27
Full

Hourly Weather History & Observations

Time (CST) Temp. Windchill Dew Point Humidity Pressure Visibility Wind Dir Wind Speed Gust Speed Precip Events Conditions
12:15 AM 31.8 °F 26.2 °F 29.8 °F 92% 30.06 in 5.0 mi WNW 5.8 mph - N/A Snow Light Snow
12:35 AM 31.8 °F 26.2 °F 29.8 °F 92% 30.06 in 7.0 mi West 5.8 mph - N/A Snow Light Snow
12:55 AM 31.8 °F 26.2 °F 29.5 °F 91% 30.07 in 5.0 mi West 5.8 mph - N/A   Overcast
1:15 AM 31.8 °F - 29.8 °F 92% 30.06 in 4.0 mi Calm Calm - N/A   Overcast
1:35 AM 31.6 °F 25.1 °F 29.8 °F 93% 30.06 in 3.0 mi WNW 6.9 mph - N/A   Overcast
1:55 AM 31.5 °F 26.8 °F 29.7 °F 93% 30.05 in 5.0 mi WNW 4.6 mph - N/A   Overcast
2:15 AM 31.5 °F - 29.8 °F 94% 30.05 in 4.0 mi Calm Calm - N/A   Overcast
2:35 AM 31.5 °F 28.1 °F 29.8 °F 94% 30.04 in 5.0 mi West 3.5 mph - N/A   Overcast
2:55 AM 31.5 °F 25.8 °F 29.8 °F 94% 30.03 in 4.0 mi WNW 5.8 mph - N/A   Overcast
3:15 AM 31.5 °F 26.8 °F 29.8 °F 94% 30.04 in 3.0 mi WNW 4.6 mph - N/A   Overcast
3:35 AM 31.1 °F 26.4 °F 29.7 °F 94% 30.04 in 2.5 mi WNW 4.6 mph - N/A   Overcast
3:55 AM 31.1 °F 26.4 °F 29.7 °F 94% 30.04 in 3.0 mi WNW 4.6 mph - N/A   Overcast
4:15 AM 31.1 °F 27.7 °F 29.7 °F 94% 30.04 in 2.5 mi WNW 3.5 mph - N/A   Overcast
4:35 AM 31.1 °F 26.4 °F 29.8 °F 95% 30.03 in 3.0 mi NW 4.6 mph - N/A   Overcast
4:55 AM 31.1 °F 26.4 °F 29.8 °F 95% 30.04 in 4.0 mi WNW 4.6 mph - N/A   Overcast
5:15 AM 31.3 °F 27.9 °F 29.8 °F 94% 30.05 in 4.0 mi WNW 3.5 mph - N/A   Overcast
5:35 AM 31.1 °F 26.4 °F 29.8 °F 95% 30.05 in 5.0 mi NW 4.6 mph - N/A   Overcast
5:55 AM 31.1 °F 26.4 °F 29.7 °F 94% 30.05 in 4.0 mi NW 4.6 mph - N/A   Overcast
6:15 AM 31.1 °F 27.7 °F 29.8 °F 95% 30.05 in 3.0 mi WNW 3.5 mph - N/A   Overcast
6:35 AM 31.3 °F 25.6 °F 29.8 °F 94% 30.06 in 5.0 mi WNW 5.8 mph - N/A   Overcast
6:55 AM 31.5 °F 25.8 °F 29.7 °F 93% 30.06 in 7.0 mi WNW 5.8 mph - N/A   Overcast
7:15 AM 31.6 °F 28.3 °F 29.7 °F 92% 30.07 in 10.0 mi WNW 3.5 mph - N/A   Overcast
7:35 AM 32.0 °F 26.4 °F 29.5 °F 90% 30.07 in 10.0 mi WNW 5.8 mph - N/A   Overcast
7:55 AM 32.0 °F 27.5 °F 29.3 °F 90% 30.08 in 3.0 mi NW 4.6 mph - N/A   Overcast
8:15 AM 32.0 °F 26.4 °F 29.3 °F 90% 30.08 in 10.0 mi NNW 5.8 mph - N/A   Overcast
8:35 AM 32.0 °F 24.8 °F 29.3 °F 90% 30.08 in 10.0 mi NW 8.1 mph - N/A Rain Light Rain
8:55 AM 32.0 °F 24.8 °F 28.2 °F 86% 30.09 in 10.0 mi WNW 8.1 mph - N/A Snow Light Snow
9:15 AM 32.2 °F 26.7 °F 27.5 °F 83% 30.09 in 10.0 mi NW 5.8 mph - 0.01 in   Mostly Cloudy
9:35 AM 32.9 °F 25.9 °F 27.1 °F 79% 30.09 in 10.0 mi NW 8.1 mph - 0.02 in   Overcast
9:55 AM 32.4 °F 27.9 °F 27.3 °F 82% 30.10 in 10.0 mi NNW 4.6 mph - 0.02 in   Overcast
10:15 AM 32.0 °F 26.4 °F 27.3 °F 83% 30.10 in 10.0 mi NNW 5.8 mph - N/A   Light Drizzle
10:35 AM 32.7 °F 26.4 °F 27.7 °F 82% 30.10 in 10.0 mi NW 6.9 mph - N/A   Overcast
10:55 AM 34.2 °F 27.5 °F 27.5 °F 77% 30.10 in 10.0 mi NW 8.1 mph - N/A   Mostly Cloudy
11:15 AM 34.0 °F 27.2 °F 26.6 °F 74% 30.10 in 10.0 mi WNW 8.1 mph - N/A   Overcast
11:35 AM 34.5 °F 26.7 °F 25.9 °F 71% 30.10 in 10.0 mi WNW 10.4 mph 16.1 mph N/A   Mostly Cloudy
11:55 AM 33.8 °F 26.4 °F 25.2 °F 71% 30.10 in 10.0 mi NW 9.2 mph - N/A   Mostly Cloudy
12:35 PM 33.6 °F 28.4 °F 26.4 °F 75% 30.09 in 7.0 mi WNW 5.8 mph - N/A Snow Light Snow
12:55 PM 33.4 °F 27.3 °F 26.6 °F 76% 30.08 in 10.0 mi NNW 6.9 mph - N/A Snow Light Snow
1:15 PM 33.4 °F 28.1 °F 27.0 °F 77% 30.08 in 10.0 mi NW 5.8 mph - N/A Snow Light Snow
1:35 PM 33.3 °F 25.7 °F 27.0 °F 78% 30.07 in 10.0 mi NW 9.2 mph 18.4 mph N/A Snow Light Snow
1:55 PM 32.5 °F 27.1 °F 27.5 °F 82% 30.08 in 1.5 mi WNW 5.8 mph - N/A Snow Light Snow
2:15 PM 32.2 °F 23.2 °F 27.7 °F 83% 30.08 in 10.0 mi NW 11.5 mph 17.3 mph N/A Rain Light Rain
2:35 PM 32.5 °F 28.1 °F 27.7 °F 82% 30.08 in 7.0 mi NW 4.6 mph - N/A Snow Light Snow
2:55 PM 32.5 °F 23.7 °F 27.5 °F 82% 30.08 in 10.0 mi NW 11.5 mph 17.3 mph N/A Snow Light Snow
3:15 PM 32.4 °F 26.0 °F 27.5 °F 82% 30.08 in 7.0 mi WNW 6.9 mph - N/A Snow Light Snow
3:55 PM 32.0 °F 26.4 °F 27.5 °F 83% 30.09 in 7.0 mi WNW 5.8 mph - N/A Snow Light Snow
4:15 PM 32.0 °F 26.4 °F 27.5 °F 83% 30.09 in 10.0 mi WNW 5.8 mph - N/A Snow Light Snow
4:35 PM 32.0 °F 26.4 °F 27.3 °F 83% 30.10 in 10.0 mi NW 5.8 mph - N/A Snow Light Snow
4:55 PM 32.0 °F 25.6 °F 27.0 °F 82% 30.10 in 10.0 mi WNW 6.9 mph - N/A Rain Light Rain
5:15 PM 32.0 °F 27.5 °F 26.8 °F 81% 30.11 in 5.0 mi NW 4.6 mph - N/A Snow Light Snow
5:35 PM 32.0 °F 23.6 °F 27.1 °F 82% 30.11 in 7.0 mi WNW 10.4 mph 16.1 mph N/A Snow Light Snow
5:55 PM 31.6 °F 25.1 °F 27.3 °F 84% 30.11 in 7.0 mi WNW 6.9 mph - N/A Snow Light Snow
6:15 PM 31.5 °F 25.8 °F 27.3 °F 85% 30.12 in 7.0 mi WNW 5.8 mph - N/A Snow Light Snow
6:35 PM 31.3 °F 24.7 °F 27.5 °F 86% 30.12 in 7.0 mi NW 6.9 mph - N/A Snow Light Snow
6:55 PM 31.1 °F 26.4 °F 27.7 °F 87% 30.13 in 7.0 mi WNW 4.6 mph - N/A Snow Light Snow
7:15 PM 30.9 °F 24.3 °F 27.5 °F 87% 30.13 in 5.0 mi NW 6.9 mph - N/A Snow Light Snow
7:35 PM 30.7 °F 24.1 °F 27.5 °F 88% 30.13 in 7.0 mi NW 6.9 mph - N/A Snow Light Snow
7:55 PM 30.4 °F 24.5 °F 27.1 °F 88% 30.14 in 7.0 mi NW 5.8 mph - N/A Snow Light Snow
8:15 PM 30.2 °F 23.4 °F 27.1 °F 88% 30.14 in 7.0 mi NNW 6.9 mph - N/A Snow Light Snow
8:35 PM 30.2 °F 25.4 °F 27.1 °F 88% 30.14 in 7.0 mi NW 4.6 mph - N/A Snow Light Snow
8:55 PM 30.2 °F 26.7 °F 26.8 °F 87% 30.14 in 7.0 mi NW 3.5 mph - N/A Snow Light Snow
9:15 PM 30.2 °F 25.4 °F 26.4 °F 86% 30.15 in 5.0 mi NW 4.6 mph - N/A Snow Light Snow
9:35 PM 30.0 °F 26.5 °F 26.4 °F 86% 30.15 in 7.0 mi NW 3.5 mph - N/A Snow Light Snow
9:55 PM 30.0 °F 25.2 °F 26.6 °F 87% 30.14 in 10.0 mi NW 4.6 mph - N/A Snow Light Snow
10:15 PM 29.8 °F 26.3 °F 26.2 °F 86% 30.14 in 10.0 mi NW 3.5 mph - N/A Snow Light Snow
10:35 PM 29.8 °F 23.0 °F 25.7 °F 85% 30.14 in 10.0 mi NW 6.9 mph - N/A   Overcast
10:55 PM 29.8 °F 23.9 °F 24.8 °F 81% 30.14 in 10.0 mi NW 5.8 mph - N/A Snow Light Snow
11:15 PM 29.8 °F 23.9 °F 24.8 °F 81% 30.14 in 7.0 mi NNW 5.8 mph - N/A Snow Light Snow
11:35 PM 29.8 °F 23.9 °F 24.4 °F 80% 30.14 in 10.0 mi WNW 5.8 mph - N/A Snow Light Snow
11:55 PM 29.7 °F 21.3 °F 24.1 °F 80% 30.14 in 10.0 mi NW 9.2 mph - N/A Snow Light Snow